Location: Ravensburg
(47.7866°N, 9.6124°E)
Time: 09:52:23
(UTC+02:00)

YUBILEINY - Pass Details

Date: 17 March 2026
Orbit: 1477 x 1509 km, 82.5° (Epoch: 17 April)

Event Time Altitude Azimuth Distance (km) Brightness Sun altitude
Rises 19:18:31 0° 259° (W) 4,634 ? -9.0°
Reaches altitude 10° 19:23:32 10° 284° (WNW) 3,652 ? -9.8°
Maximum altitude 19:27:41 14° 313° (NW) 3,346 ? -10.5°
Drops below altitude 10° 19:31:50 10° 342° (NNW) 3,647 ? -11.2°
Sets 19:36:54 0° 7° (N) 4,624 ? -12.0°
